Find Starlink 4118

NORAD ID: 53538 Int'l Des: 2022-101 Owner: SPXS Country: US Constellation: starlink decayed
LEOCIRCULAR
Vis

Historical Track — Feb 7, 2026

Loading 3D Globe...

About Starlink 4118

Description loading...

Altitude History

Loading altitude history...

Two-Line Element Set

1 53538U 22101M 26038.80793653 .09956111 12548-4 24718-3 0 9991
2 53538 53.1974 172.9058 0001879 338.6727 21.4246 16.46129599192832
Epoch: Feb 7, 2026 • Age: 2098 hours

Current Status

Position data unavailable
Launch Date Aug 19, 2022
Age 3.7 years
Decay Date Feb 7, 2026
Type internet

Technical Details

Classification Payload
Mass 300.00 kg
Dry Mass 290.00 kg
Total Mass 300.00 kg
Length 0.20 m
Diameter 2.80 m
Span 9.00 m
Shape Box + pan
Manufacturer SPXS
Bus Type Starlink
Phase Status Unknown Transfer Status
Owner/State SPXS/US

Most Searched